CAPE
4 2 0 0 0 0 0 3 9 0 0 0 7 5 9 4 5 7 4 4 3 3 3 4 1 2 0 0 1 222 258 165 0 0 0 0 0 0 0 0 0 0 0 0 0 0 74
9 2 0 0 0 0 0 0 3 0 0 0 2 5 6 3 4 7 6 5 1 0 1 2 2 0 0 0 0 185 114 0 0 0 0 0 0 0 0 0 0 0 0 0 0 0 0
0 9 0 0 0 0 0 0 0 0 0 0 0 5 3 4 5 6 5 1 0 0 1 2 1 0 0 1 0 175 22 0 0 0 0 0 0 0 0 0 0 0 0 0 0 0 0
9 3 6 0 0 0 0 0 0 0 0 0 4 4 1 1 2 3 0 0 0 0 3 3 1 0 19 0 0 0 0 0 0 0 0 0 0 0 0 0 0 0 0 0 0 0 0
20 4 17 1 0 0 0 0 0 0 0 0 1 3 2 0 0 1 0 0 0 2 0 0 0 0 24 0 0 0 0 0 0 0 0 0 0 0 0 0 0 0 0 0 0 0 0
26 13 14 2 0 0 0 0 0 0 0 0 1 2 2 1 0 0 0 0 0 1 2 0 0 65 55 0 1 0 0 0 0 0 0 0 0 0 0 0 0 0 0 0 0 0 0
42 34 8 5 0 0 0 0 0 0 0 0 2 1 2 0 1 0 0 0 0 0 0 0 0 1 0 0 0 0 0 0 0 0 23 0 0 0 0 0 0 0 0 0 0 4 64
33 35 16 33 0 0 0 0 0 0 0 0 0 2 1 1 1 0 0 0 0 37 74 5 0 0 0 0 0 0 1 22 51 9 0 1 1 0 1 0 0 0 0 21 0 0 107
46 44 11 7 1 0 0 0 0 0 0 0 0 2 0 1 0 1 0 0 0 7 378 1 0 0 0 0 0 0 4 5 20 17 4 45 12 0 18 15 17 20 52 87 56 18 73
54 50 19 3 16 0 0 0 0 0 0 0 0 0 0 0 0 0 0 0 0 0 22 0 0 0 0 0 0 0 5 26 14 67 82 138 14 60 96 71 48 134 7 23 61 62 89
61 61 41 0 9 0 0 0 0 0 0 0 0 0 0 0 0 0 14 133 35 14 0 0 0 0 0 0 0 15 3 50 27 73 142 150 88 99 122 94 49 117 11 114 67 139 121
59 74 67 1 0 0 0 0 0 0 0 0 0 0 0 1 0 0 0 146 122 259 0 0 0 0 9 0 0 18 40 24 33 107 143 102 18 81 79 11 12 3 52 51 56 107 144
63 66 62 28 0 1 0 0 0 0 0 0 0 0 2 0 0 0 371 254 53 17 1 0 0 0 18 8 18 91 131 132 149 191 213 125 88 18 27 69 8 65 127 157 100 150 164
79 93 74 64 7 1 0 0 0 0 0 0 0 0 3 0 0 0 0 0 3 0 4 0 0 0 38 8 16 40 119 159 46 139 203 106 128 0 0 44 59 126 130 83 20 122 54
112 129 95 83 2 14 0 0 0 0 0 0 0 10 4 0 0 0 0 119 1 5 8 0 0 0 23 12 0 69 114 150 30 61 68 56 1 0 0 0 0 0 30 23 53 1 47
140 97 76 68 4 21 1 0 0 0 0 0 5 4 0 2 0 0 78 0 0 71 3 0 0 0 15 27 0 4 98 6 11 0 2 46 7 0 0 0 0 0 0 8 13 2 0
180 134 88 83 8 34 2 0 0 0 0 0 1 0 52 202 5 10 133 0 5 279 106 0 0 0 0 26 12 0 0 2 0 0 0 0 15 2 0 0 10 0 0 0 0 0 0
181 146 97 82 41 5 7 0 0 0 0 0 0 7 37 0 11 0 0 0 72 180 3 0 3 0 9 44 31 51 2 18 0 0 0 0 12 58 0 0 0 0 0 0 0 0 0
179 178 139 116 67 18 3 0 0 0 0 4 0 198 13 0 21 41 0 0 84 23 0 91 45 65 76 132 115 74 24 0 0 0 0 0 1 0 0 0 0 0 0 0 0 0 0
137 185 199 149 64 16 0 0 0 0 0 24 44 229 209 0 0 0 0 0 0 0 5 25 85 127 156 92 34 82 21 0 0 0 0 0 0 0 52 0 0 0 0 0 0 0 0
164 196 136 91 32 26 0 0 0 0 0 0 107 79 43 45 0 0 0 0 0 38 7 20 94 162 218 178 70 80 7 0 0 0 0 0 0 0 0 0 0 0 0 0 0 0 0
226 162 60 60 6 5 0 1 0 0 0 13 107 80 15 0 0 0 0 0 0 10 63 98 199 110 143 223 114 145 12 0 0 0 0 0 0 0 0 0 0 0 0 0 0 0 0
177 84 9 52 33 5 1 1 0 0 0 36 76 2 56 0 0 0 0 0 0 130 9 8 190 177 136 43 0 0 0 0 0 0 0 0 0 0 0 0 0 0 0 0 0 0 0
94 68 68 37 35 12 2 1 0 0 0 169 231 75 99 1 0 0 0 0 70 141 174 0 43 188 0 0 0 0 0 0 0 0 0 0 0 0 0 0 0 0 0 0 0 0 0
78 47 89 14 1 2 0 0 0 0 0 294 214 147 73 0 3 0 0 0 0 4 61 39 0 0 0 0 16 0 0 0 0 0 0 0 0 0 10 0 0 0 0 0 0 0 0
42 45 44 1 0 0 0 0 0 0 0 284 338 59 274 61 0 0 0 0 97 177 61 0 0 0 0 0 7 46 4 0 0 0 0 0 0 0 0 113 180 0 0 0 0 0 0
28 1 2 0 0 0 0 0 0 0 0 228 347 39 333 195 5 0 0 0 37 176 248 0 0 0 0 0 564 198 23 0 0 0 0 0 0 0 0 0 0 0 0 0 0 0 0
1 1 1 1 0 0 0 0 0 0 0 228 386 145 682 520 5 2 0 0 0 183 337 0 2 4 0 122 551 24 134 0 0 0 0 0 0 0 0 5 0 0 0 1 0 0 0
0 0 0 0 0 0 0 0 0 0 0 105 656 52 157 402 54 0 0 0 0 71 125 0 219 10 47 63 3 0 2 0 0 4 0 0 0 0 0 0 0 0 0 0 0 0 0
CIN
-7 -12 -0 -0 -0 -0 -0 -10 -11 -0 -0 -0 -3 -2 -1 -0 -0 -0 -1 -5 -2 -1 -2 -1 -0 -0 -0 -0 -65 -311 -731 -724 -0 -0 -0 -0 -0 -0 -0 -0 -0 -0 -0 -0 -0 -0 -3
-17 -25 -0 -0 -0 -0 -0 -0 -16 -0 -0 -1 -0 -2 -2 -1 -1 -0 -1 -4 -4 -2 -3 -0 -1 -0 -0 -28 -0 -249 -364 -0 -0 -0 -0 -0 -0 -0 -0 -0 -0 -0 -0 -0 -0 -0 -0
-0 -17 -0 -0 -0 -0 -0 -0 -0 -0 -0 -0 -0 -2 -5 -2 -1 -1 -1 -4 -0 -0 -2 -1 -0 -0 -0 -14 -0 -228 -356 -0 -0 -0 -0 -0 -0 -0 -0 -0 -0 -0 -0 -0 -0 -0 -0
-1 -4 -34 -0 -0 -0 -0 -0 -0 -0 -0 -0 -0 -2 -4 -3 -2 -1 -4 -0 -0 -0 -2 -1 -1 -0 -339 -0 -0 -201 -0 -46 -0 -0 -0 -0 -0 -0 -0 -0 -0 -0 -0 -0 -0 -0 -0
-0 -1 -11 -50 -0 -0 -0 -0 -0 -0 -0 -0 -2 -2 -3 -2 -3 -3 -0 -0 -0 -1 -0 -3 -0 -0 -134 -0 -0 -0 -0 -0 -0 -0 -0 -0 -0 -0 -0 -0 -0 -0 -0 -0 -0 -0 -0
-0 -0 -3 -18 -0 -0 -0 -0 -0 -0 -0 -0 -2 -2 -3 -4 -3 -4 -0 -0 -0 -2 -0 -0 -0 -101 -81 -10 -27 -0 -0 -0 -0 -0 -0 -0 -0 -0 -0 -0 -0 -0 -0 -0 -0 -0 -0
-0 -0 -3 -3 -0 -0 -0 -0 -0 -0 -0 -0 -1 -1 -2 -4 -5 -0 -0 -0 -0 -0 -0 -1 -1 -96 -0 -0 -0 -0 -0 -0 -0 -0 -24 -0 -0 -0 -0 -0 -0 -0 -0 -0 -0 -136 -35
-0 -0 -1 -0 -0 -0 -0 -0 -0 -0 -0 -0 -0 -2 -3 -2 -5 -0 -0 -0 -0 -254 -117 -56 -0 -0 -0 -0 -0 -0 -13 -25 -19 -8 -0 -3 -16 -0 -23 -0 -0 -0 -0 -10 -7 -0 -52
-0 -0 -0 -15 -0 -0 -0 -0 -0 -0 -0 -0 -3 -2 -1 -3 -0 -0 -0 -0 -0 -65 -37 -78 -0 -0 -0 -0 -0 -0 -47 -59 -16 -12 -1 -2 -34 -0 -44 -34 -16 -25 -1 -25 -12 -147 -101
-0 -1 -1 -13 -2 -0 -0 -0 -0 -0 -0 -0 -1 -0 -0 -0 -0 -0 -0 -0 -0 -0 -10 -0 -0 -0 -0 -0 -0 -0 -107 -36 -53 -7 -13 -23 -135 -55 -18 -21 -47 -8 -87 -56 -82 -50 -2
-0 -0 -2 -0 -3 -0 -0 -0 -0 -0 -0 -0 -0 -1 -0 -0 -0 -0 -125 -171 -277 -122 -0 -0 -0 -0 -0 -0 -0 -59 -180 -40 -13 -40 -43 -45 -53 -31 -16 -36 -89 -33 -123 -52 -63 -14 -29
-0 -0 -1 -0 -0 -1 -0 -0 -0 -0 -0 -0 -0 -2 -0 -0 -0 -0 -0 -200 -169 -15 -0 -0 -0 -0 -32 -17 -0 -80 -52 -97 -114 -51 -37 -71 -151 -64 -54 -154 -125 -62 -92 -81 -65 -33 -7
-0 -0 -0 -3 -0 -5 -0 -0 -0 -0 -0 -0 -0 -0 -0 -0 -0 -0 -141 -96 -13 -5 -6 -0 -0 -0 -18 -39 -55 -29 -21 -20 -3 -8 -8 -35 -57 -126 -109 -58 -77 -75 -19 -3 -2 -2 -8
-0 -0 -1 -1 -11 -6 -0 -0 -0 -0 -0 -0 -0 -0 -2 -0 -0 -0 -0 -0 -1 -0 -6 -0 -0 -0 -6 -24 -55 -56 -24 -10 -79 -22 -3 -0 -9 -2 -0 -52 -25 -28 -13 -2 -19 -8 -0
-0 -0 -0 -1 -19 -1 -0 -0 -0 -0 -0 -0 -0 -0 -0 -0 -0 -0 -0 -7 -16 -29 -7 -0 -0 -0 -25 -47 -0 -19 -18 -9 -50 -64 -2 -6 -0 -0 -0 -0 -0 -5 -42 -80 -56 -0 -43
-4 -5 -8 -6 -13 -41 -1 -0 -0 -0 -0 -0 -0 -0 -0 -74 -0 -0 -16 -0 -0 -82 -45 -0 -0 -0 -33 -45 -0 -17 -19 -39 -86 -0 -76 -34 -12 -0 -0 -0 -0 -0 -0 -37 -67 -39 -0
-5 -9 -5 -4 -4 -0 -1 -0 -0 -0 -0 -0 -0 -0 -109 -112 -71 -10 -0 -0 -17 -47 -94 -0 -0 -0 -0 -68 -34 -0 -0 -79 -0 -0 -0 -0 -13 -10 -0 -0 -32 -0 -0 -0 -0 -0 -0
-3 -9 -6 -4 -1 -0 -0 -0 -0 -0 -0 -0 -0 -6 -132 -12 -21 -0 -0 -0 -73 -36 -8 -0 -27 -0 -54 -58 -48 -33 -50 -69 -0 -0 -0 -0 -8 -12 -0 -0 -0 -0 -0 -0 -0 -0 -0
-0 -1 -11 -1 -1 -0 -0 -0 -0 -0 -0 -0 -0 -4 -34 -0 -3 -29 -0 -0 -42 -37 -0 -75 -75 -74 -91 -22 -15 -33 -61 -0 -0 -0 -0 -0 -1 -0 -0 -0 -0 -0 -0 -0 -0 -0 -0
-0 -0 -0 -0 -1 -4 -0 -0 -0 -0 -0 -25 -2 -10 -21 -2 -0 -0 -0 -0 -0 -0 -40 -139 -116 -80 -45 -41 -94 -67 -90 -0 -0 -0 -0 -0 -0 -0 -0 -0 -0 -0 -0 -0 -0 -0 -0
-0 -0 -0 -0 -6 -0 -0 -0 -0 -0 -0 -0 -10 -0 -1 -3 -0 -0 -0 -0 -0 -52 -118 -154 -86 -27 -11 -40 -61 -64 -115 -0 -0 -0 -0 -0 -0 -0 -0 -0 -0 -0 -0 -0 -0 -0 -0
-0 -1 -1 -2 -22 -0 -0 -0 -0 -0 -0 -54 -2 -7 -44 -0 -0 -0 -0 -0 -0 -84 -82 -66 -19 -55 -40 -26 -15 -44 -67 -0 -0 -0 -0 -0 -0 -0 -0 -0 -0 -0 -0 -0 -0 -0 -0
-0 -0 -9 -0 -0 -0 -0 -0 -0 -0 -0 -37 -88 -105 -2 -0 -0 -0 -0 -0 -0 -29 -86 -148 -37 -42 -54 -57 -0 -0 -0 -0 -0 -0 -0 -0 -0 -0 -0 -0 -0 -0 -0 -0 -0 -0 -0
-4 -1 -0 -0 -0 -0 -0 -0 -0 -0 -0 -23 -70 -36 -9 -2 -0 -0 -0 -0 -34 -21 -46 -0 -166 -52 -14 -0 -0 -0 -0 -0 -0 -0 -0 -0 -0 -0 -0 -0 -0 -0 -0 -0 -0 -0 -0
-2 -0 -0 -1 -0 -0 -0 -0 -0 -0 -0 -62 -124 -38 -20 -0 -35 -0 -0 -0 -0 -61 -153 -205 -0 -0 -0 -0 -115 -0 -0 -0 -0 -0 -0 -0 -0 -0 -6 -0 -0 -0 -0 -0 -0 -0 -0
-0 -0 -0 -0 -0 -0 -0 -0 -0 -0 -0 -114 -144 -245 -21 -86 -0 -0 -0 -0 -66 -47 -171 -0 -0 -0 -0 -0 -137 -82 -98 -0 -0 -0 -0 -0 -0 -0 -0 -0 -3 -0 -0 -0 -0 -0 -0
-0 -0 -0 -0 -0 -0 -0 -0 -0 -0 -0 -136 -119 -374 -12 -4 -29 -0 -0 -0 -103 -65 -89 -0 -0 -0 -0 -0 -33 -29 -86 -0 -0 -0 -0 -0 -0 -0 -0 -0 -0 -0 -0 -0 -0 -0 -0
-0 -0 -0 -0 -0 -0 -0 -0 -0 -0 -0 -118 -138 -289 -53 -19 -63 -51 -0 -0 -0 -71 -61 -0 -34 -46 -0 -85 -31 -11 -6 -0 -0 -0 -0 -0 -0 -0 -0 -0 -0 -0 -0 -7 -0 -0 -0
-0 -0 -0 -0 -0 -0 -0 -0 -0 -0 -0 -173 -59 -315 -229 -42 -112 -0 -0 -0 -0 -102 -111 -0 -63 -73 -101 -74 -5 -0 -0 -0 -0 -20 -0 -0 -0 -0 -0 -0 -0 -0 -0 -0 -0 -0 -0
Wind_Speed
19 18 16 15 14 14 14 11 10 10 9 9 10 9 10 13 13 11 9 9 7 7 6 6 7 7 6 6 8 8 9 12 14 13 14 13 12 8 11 9 8 11 2 3 5 11 13
18 18 17 16 15 15 14 12 10 10 10 10 12 9 10 9 11 9 7 8 6 5 4 5 4 6 4 7 4 5 11 14 12 15 12 10 5 7 5 4 11 1 3 2 1 7 7
15 19 18 17 16 15 14 12 11 10 10 10 13 9 8 8 8 8 7 6 5 1 2 3 3 4 5 11 2 9 9 9 12 15 12 12 3 7 1 6 3 9 9 10 8 10 6
17 16 19 18 17 15 14 12 11 10 10 10 10 9 8 7 7 6 6 4 1 1 2 2 3 4 8 2 1 9 10 7 8 12 8 4 8 6 4 4 6 7 7 9 5 9 5
20 15 20 19 17 16 15 13 12 10 11 10 9 9 7 6 6 5 3 4 3 2 4 4 5 5 6 2 5 3 10 4 8 9 5 2 8 5 6 8 8 7 8 11 9 4 8
21 18 19 20 18 17 15 14 12 10 11 9 9 8 7 6 6 5 7 3 3 5 5 5 4 5 8 2 2 1 7 11 4 12 7 4 5 6 6 9 9 9 9 14 13 4 7
22 19 17 21 20 19 17 16 13 12 11 9 9 8 8 6 7 11 9 5 6 6 8 6 1 5 5 8 2 4 3 6 9 4 3 6 6 7 11 6 3 5 7 12 8 4 5
23 21 17 21 21 20 18 16 13 12 11 9 8 8 8 6 10 11 3 5 6 5 4 14 11 10 10 4 3 5 4 7 6 6 6 6 5 3 6 5 5 6 10 8 6 3 5
23 22 19 17 22 21 19 18 14 13 12 9 9 8 6 10 13 6 8 12 0 10 5 4 7 6 4 7 3 2 3 1 2 7 9 8 8 3 5 6 7 3 6 10 5 7 2
24 22 20 17 21 22 20 18 16 14 12 10 9 8 10 16 7 5 7 9 14 6 5 6 5 4 5 3 4 3 2 1 3 4 2 6 3 4 7 5 3 6 3 9 12 13 9
25 23 20 18 19 22 19 18 16 14 13 11 10 10 17 18 4 6 3 2 7 4 6 7 6 4 4 6 4 3 3 3 2 4 6 4 6 7 6 3 2 4 7 10 8 7 6
26 24 23 19 19 21 20 18 17 14 13 12 11 12 16 9 4 8 7 4 4 5 4 7 6 7 8 3 2 3 2 5 3 3 4 5 2 2 4 5 2 11 12 8 4 4 6
27 25 26 20 19 21 22 20 17 15 13 12 12 15 17 6 1 5 4 6 5 6 3 7 12 7 8 5 4 2 6 8 6 9 8 7 4 5 4 10 8 8 11 5 6 6 7
27 25 25 23 19 22 22 22 18 16 14 12 11 13 12 10 2 5 5 5 7 3 7 2 6 8 10 5 3 3 8 9 3 5 8 9 7 5 2 4 5 9 7 4 5 6 5
27 25 25 24 20 21 23 22 19 17 15 14 14 5 5 9 15 3 6 6 7 5 6 8 8 13 6 5 3 5 2 5 2 2 3 5 4 4 2 2 3 6 7 4 3 0 4
24 24 23 25 20 21 24 23 21 19 19 21 8 6 9 9 12 7 7 7 5 3 3 7 13 10 13 10 8 8 8 3 4 1 3 4 4 2 5 2 7 4 8 4 3 4 5
23 20 21 23 20 20 24 23 23 23 22 23 7 7 8 11 9 7 9 10 5 5 5 8 8 6 10 9 7 8 7 4 3 4 1 5 3 5 3 6 6 5 5 1 1 2 3
21 20 21 23 21 21 25 24 25 25 24 13 7 9 8 9 9 7 11 6 3 4 4 6 4 5 11 10 8 8 9 1 3 3 5 3 2 4 6 3 2 3 3 7 4 5 0
19 21 21 22 22 19 26 25 26 27 26 8 9 6 4 6 9 7 5 6 4 5 5 7 7 2 2 7 5 5 5 3 3 5 5 6 4 4 5 6 5 8 7 3 6 1 6
19 21 21 23 20 17 27 28 28 32 28 8 9 9 6 7 3 14 12 12 9 2 3 2 4 3 7 4 1 7 7 3 3 2 3 3 3 6 7 1 1 7 11 11 9 4 4
20 20 21 21 21 21 28 29 32 33 28 6 6 8 10 10 10 13 15 12 14 5 4 5 3 5 7 5 4 5 5 6 4 4 2 4 5 4 1 1 3 4 9 14 15 13 8
20 20 21 17 19 23 29 28 29 30 24 5 6 6 4 14 13 13 11 11 16 7 5 7 7 7 6 6 6 10 9 7 4 6 4 1 3 2 4 2 2 7 10 12 16 15 16
21 23 21 24 25 25 28 27 26 28 18 6 2 1 9 3 11 14 10 13 14 10 1 2 6 7 5 4 5 9 7 8 5 5 6 3 6 4 2 1 2 6 16 17 12 13 14
22 23 22 23 26 28 25 24 27 33 23 5 3 3 6 7 10 13 14 11 12 10 6 4 3 4 5 15 16 14 14 12 10 9 4 5 5 1 1 2 4 1 1 3 14 16 15
23 22 22 24 27 26 27 25 28 31 18 4 3 3 4 5 9 9 13 13 8 6 5 5 4 3 16 3 4 4 2 2 4 7 5 1 4 3 3 5 7 10 4 4 6 6 6
21 21 23 25 24 26 26 27 27 28 17 2 2 0 3 8 8 8 16 11 7 6 5 4 6 10 1 2 2 4 4 2 4 4 3 5 3 2 3 3 4 3 3 0 2 7 5
22 24 23 23 23 23 23 25 24 23 20 2 3 1 2 3 3 9 13 13 5 5 6 7 9 3 2 2 2 3 4 2 4 5 4 2 0 4 4 4 6 1 1 3 3 4 4
21 20 20 21 20 20 21 22 22 22 23 4 4 3 2 3 5 2 4 6 6 7 7 9 7 3 2 2 2 3 2 4 3 2 4 5 6 4 3 3 5 5 5 3 4 2 4
17 17 16 16 16 18 19 20 21 22 22 6 4 2 3 5 5 4 6 4 4 3 7 12 2 6 6 4 1 3 3 1 1 2 3 4 3 1 6 1 3 7 7 2 4 7 6
Wind_Direction
227 227 225 222 228 232 229 219 233 252 261 275 283 293 297 302 298 296 297 292 295 299 303 305 308 321 284 242 259 53 114 136 163 183 192 191 187 189 195 196 186 238 204 188 172 188 192
259 220 219 220 222 230 233 227 223 243 253 269 282 288 290 296 296 293 288 287 297 291 295 297 320 298 261 257 70 125 130 150 174 185 207 211 223 215 205 196 224 140 198 107 160 117 125
286 226 218 218 220 222 229 225 221 235 248 262 279 283 287 289 289 287 286 286 287 268 269 281 295 281 254 258 56 151 159 182 192 202 195 211 220 212 279 170 169 145 128 128 134 160 127
269 269 218 216 217 219 223 221 221 231 242 249 277 279 285 286 286 288 285 297 100 217 242 245 266 250 260 205 252 220 232 215 200 212 242 250 219 266 279 112 139 173 185 145 94 168 147
268 267 234 216 217 218 216 212 217 225 240 247 271 275 281 282 270 263 246 93 90 238 244 224 207 263 260 241 235 238 198 164 148 182 202 81 174 219 180 209 164 187 176 140 130 28 154
261 258 249 215 215 214 214 211 210 213 236 243 267 270 273 264 244 217 121 85 139 215 220 220 248 252 236 68 341 229 175 155 148 145 141 210 194 207 201 198 178 171 140 167 151 88 183
260 255 249 223 212 212 211 212 206 204 225 239 263 262 257 246 219 146 133 155 201 197 229 242 58 295 294 333 214 188 166 150 141 207 181 203 211 216 181 212 28 126 139 141 117 98 130
253 252 253 231 213 211 208 213 205 202 212 229 252 252 253 224 157 142 223 235 295 351 253 222 253 271 273 286 262 182 206 211 204 187 166 177 144 96 114 140 144 144 157 138 116 122 243
245 250 244 242 217 211 206 206 199 203 200 214 237 241 227 153 139 157 229 234 226 348 264 169 205 246 280 198 251 175 253 30 5 145 226 213 108 155 148 133 152 135 197 167 180 158 207
241 241 237 240 229 211 207 203 195 200 197 199 215 216 166 136 187 164 232 252 249 236 230 146 202 194 172 233 218 10 20 126 199 140 139 77 101 152 133 136 273 180 202 148 153 184 197
240 239 232 232 228 211 202 198 193 194 194 186 195 192 166 184 91 202 39 205 152 203 195 152 156 110 150 207 124 135 37 206 168 154 248 96 152 147 149 77 171 63 167 145 163 205 209
230 235 235 229 226 214 197 195 185 190 186 181 181 179 168 232 245 251 297 180 182 229 221 164 172 179 174 162 135 134 160 82 105 102 100 97 81 14 83 62 184 141 136 129 163 210 239
233 226 232 223 223 214 197 190 186 180 182 175 178 174 175 190 214 347 220 204 192 219 125 166 175 182 191 160 139 171 169 153 187 159 162 157 111 116 157 119 140 226 183 178 222 207 250
228 226 225 222 220 213 201 189 179 173 172 165 172 166 210 233 244 318 235 197 201 198 195 111 182 171 194 166 121 140 169 164 155 248 174 204 174 169 137 277 204 199 241 229 239 222 262
227 224 223 220 221 212 201 187 171 162 160 150 142 165 243 228 222 272 249 200 193 204 172 176 168 189 162 153 208 181 195 160 133 290 214 179 123 128 58 171 252 154 219 41 144 56 270
222 224 223 219 215 212 200 184 164 154 154 151 158 179 223 178 165 184 233 213 206 199 190 193 185 213 190 177 187 212 194 143 143 224 310 160 152 175 135 182 68 293 122 182 210 232 241
211 216 227 221 214 214 197 179 160 154 161 176 164 202 119 146 161 197 207 200 203 205 210 192 190 168 203 177 203 192 183 144 196 132 203 168 242 147 207 215 195 153 185 71 61 302 284
212 208 226 223 215 207 199 175 159 155 162 165 178 205 144 173 178 204 198 194 183 171 164 205 228 165 184 180 181 192 192 291 138 177 187 132 149 177 194 114 316 282 204 197 240 173 110
212 216 215 219 217 216 192 168 155 153 164 161 178 150 137 232 180 182 155 175 223 172 183 183 183 190 170 169 179 188 177 85 176 204 177 172 194 163 167 174 188 228 191 182 112 128 203
217 220 221 211 211 236 182 163 160 168 184 211 174 170 147 202 263 179 177 187 196 186 177 169 138 133 142 156 82 167 159 141 133 147 42 197 189 245 236 31 268 194 195 197 205 199 199
220 216 215 208 218 226 174 161 169 179 181 228 212 181 166 175 192 186 185 175 192 163 206 193 145 202 166 148 155 171 160 147 142 152 148 233 232 211 201 108 217 257 221 200 212 228 225
216 210 199 184 212 209 166 164 175 180 167 225 186 169 173 155 161 170 179 187 194 161 190 180 204 151 173 172 197 183 169 190 175 165 176 144 188 189 212 200 259 257 239 228 228 244 255
210 197 196 190 206 184 163 167 176 173 172 181 148 145 176 152 173 180 184 178 200 153 102 6 149 137 143 82 62 60 78 75 100 173 155 151 147 165 232 6 270 280 238 223 222 226 240
202 193 193 208 210 177 165 165 174 173 197 182 165 166 149 147 194 191 176 188 172 169 138 102 120 121 107 122 109 83 80 81 83 69 58 131 123 81 109 207 228 29 140 286 242 254 240
192 183 201 172 165 165 165 166 175 181 197 208 143 188 125 113 189 188 186 179 142 125 94 104 57 47 147 156 111 118 76 72 63 51 57 9 148 125 183 215 319 277 189 207 209 281 262
171 186 181 171 165 166 162 171 179 187 186 152 129 315 108 130 208 174 175 184 161 151 123 84 76 117 180 89 136 164 184 174 157 142 79 68 63 263 151 223 246 48 62 162 229 272 30
166 159 164 165 167 162 166 177 176 182 186 213 110 20 132 165 137 166 182 180 159 158 111 126 155 192 279 108 106 164 175 347 193 181 179 127 55 213 177 240 280 316 172 180 239 21 16
154 157 164 165 156 160 171 173 171 174 176 220 93 43 294 108 135 226 153 149 147 183 147 135 143 184 134 159 176 162 159 184 201 131 185 187 168 180 134 208 267 155 145 227 17 358 318
141 150 147 144 155 167 171 169 170 168 174 207 99 48 26 63 67 59 66 18 335 169 126 172 31 147 163 116 106 107 134 42 105 210 184 228 235 244 222 253 112 197 276 333 294 286 296